www.pogodaiklimat.ru

АРХИВ ПОГОДЫ в Хоутон Лейк

Время (UTC), дата Ветер
(напр.,м/с)
 
Видим.   Явления Облачность Т
(С)
Тd
(С)
f
(%)
Тe
(С)
Тes
(С)
Комфортность

P
(гПа)

Po
(гПа)
Тmin
(С)
Tmax
(С)
R
(мм)
SD
(см)
11:31 22.03 СЗ  10 км  дымка  10/10 420 м  0.0  -2.2  85  -7  -7      970.1         
11:53 22.03 СЗ  6
{13} 
6 км  слабый снег, дымка  10/10 450 м  0.0  -2.2  85  -7  -7    1013.0  970.4         
12:20 22.03 С  6
{10} 
3 км  слабый снег  10/10 450 м  0.0  -2.8  81  -7  -7      970.8         
12:26 22.03 С  6
{10} 
6 км  слабый снег  10/10 450 м  0.0  -2.8  81  -7  -7      970.8         
12:53 22.03 СЗ  6
{13} 
13 км  слабый снег  10/10 510 м  +0.6  -3.3  75  -6  -6    1013.6  971.1         
13:08 22.03 СЗ  7
{12} 
4 км  слабый снег  10/10 270 м  +0.6  -2.8  78  -7  -7      971.1         
13:16 22.03 СЗ  7
{13} 
10 км  слабый снег  8/8 270 м  +0.6  -2.8  78  -6  -6      971.1         
13:45 22.03 С  7
{13} 
16 км    5/5 540 м  +1.1  -3.9  69  -6  -6      971.7         
13:53 22.03 С  8
{14} 
16 км    5/5 540 м  +0.6  -4.4  69  -7  -6    1014.7  972.1         
14:53 22.03 СЗ  10
{14} 
16 км    ясно  +0.6  -6.1  61  -7  -7    1015.7  973.0         
15:39 22.03 СЗ  8
{15} 
16 км    8/8 870 м  -0.6  -7.2  61  -8  -8      974.0         
15:53 22.03 СЗ  8
{13} 
16 км    10/10 840 м  -0.6  -7.2  61  -8  -8    1017.1  974.0         
16:26 22.03 СЗ  9
{14} 
16 км    5/5 870 м  -0.6  -7.2  61  -9  -9      974.7         
16:37 22.03 СЗ  9
{13} 
16 км    8/8 870 м  -0.6  -7.2  61  -9  -9      974.7         
16:53 22.03 С  7
{12} 
16 км    8/8 840 м  -0.6  -7.8  58  -8  -7    1017.6  974.7  -0.6  +1.7     
17:01 22.03 СЗ  7
{12} 
16 км    5/5 840 м  0.0  -7.2  58  -7  -6      974.7         
17:53 22.03 С  10
{15} 
16 км    ясно  0.0  -7.8  56  -8  -8    1017.5  974.7         
18:53 22.03 СЗ  9
{14} 
16 км    ясно  +0.6  -7.8  53  -7  -7    1018.0  975.0         
19:53 22.03 СЗ  9
{13} 
16 км    ясно  +0.6  -8.3  51  -7  -7    1018.5  975.6         
20:53 22.03 СЗ  7
{13} 
16 км    ясно  0.0  -7.8  56  -7  -6    1019.0  976.0         
21:53 22.03 СЗ  8
{13} 
16 км    ясно  -1.1  -7.8  60  -9  -8    1019.7  976.6         
22:53 22.03 СЗ  5
{10} 
16 км    ясно  -2.2  -8.3  63  -9  -9    1020.6  977.3  -2.2  +1.1     
23:53 22.03 СЗ  6
{9} 
16 км    ясно  -3.3  -8.3  68  -11  -11    1021.4  978.2         
00:53 23.03 СЗ  16 км    ясно  -3.9  -8.3  71  -11  -11    1022.3  978.9         
01:53 23.03 СЗ  16 км    ясно  -4.4  -8.3  74  -11  -11    1022.8  979.5         
02:53 23.03 СЗ  16 км    ясно  -5.0  -8.9  74  -11  -11    1023.3  979.8         
03:53 23.03 СЗ  16 км    ясно  -5.6  -9.4  75  -12  -12    1023.5  979.8         
04:53 23.03 СЗ  16 км    ясно  -6.1  -10.6  70  -12  -12    1023.6  980.2  -6.1  -2.2     
05:53 23.03 З  16 км    ясно  -6.7  -10.0  77  -13  -13    1023.8  980.2         
06:53 23.03 СЗ  16 км    ясно  -7.2  -10.0  80  -12  -12    1023.9  980.5         
07:53 23.03 СЗ  16 км    ясно  -7.2  -10.0  80  -13  -13    1024.1  980.5         
08:53 23.03 СЗ  16 км    ясно  -7.8  -10.0  84  -14  -14    1024.4  980.8         
09:53 23.03 СЗ  16 км    ясно  -7.8  -10.0  84  -11  -11    1024.7  981.1         
10:53 23.03 З  16 км    ясно  -7.8  -9.4  88  -13  -13    1025.5  981.8  -8.3  -6.1     
11:53 23.03 З  16 км    ясно  -6.1  -8.3  84  -11  -11    1025.9  982.1         
12:53 23.03 З  16 км    ясно  -4.4  -7.8  77  -10  -9    1026.0  982.4         
13:53 23.03 З  16 км    ясно  -1.7  -8.3  61  -7  -4    1026.3  982.8         
14:53 23.03 ЮЗ  16 км    ясно  0.0  -8.3  54  -5  -0    1026.5  982.8         
15:53 23.03 З  16 км    ясно  +1.7  -8.9  45  -2  +5    1025.8  982.4         
16:53 23.03 З  16 км    ясно  +3.3  -8.3  42  -1  +7    1025.8  982.4  -7.8  +3.3     
17:53 23.03 З  16 км    ясно  +4.4  -10.0  34  0  +4    1025.4  981.8         
18:53 23.03 З  16 км    ясно  +5.6  -7.2  39  +2  +7    1024.6  981.1         
19:53 23.03 З  16 км    ясно  +6.1  -7.2  38  +3  +9    1023.7  980.5         
20:53 23.03 ЮЗ  16 км    ясно  +6.1  -6.7  39  +3  +6    1023.1  979.8         
21:53 23.03 ЮЗ  16 км    ясно  +5.6  -6.1  43  +2  +3    1022.6  979.2         
22:53 23.03 ЮЗ  16 км    ясно  +3.9  -6.1  48  -0  0    1022.6  979.2  +3.3  +6.7     
23:53 23.03 З  16 км    ясно  +2.8  -6.1  52  -1  -1    1022.6  979.2         
00:53 24.03 ЮЗ  16 км    ясно  +1.7  -6.7  54  -2  -2    1022.5  979.2         

 

Местоположение метеостанции Roscommon County Airport: широта 44.3511 долгота -84.6742 высота над уровнем моря 350 м.

В архиве по умолчанию представлена погода в Хоутон Лейк за последние 1-2 суток. Обновление информации о фактической погоде в базе происходит ежечасно! Архивные данные за месяц целиком и за предыдущие месяцы Вы можете получить, выбрав интересующий диапазон дат из раскрывающегося списка и нажав кнопку "Ввод!".

Внимание! Архив погоды МЕТАР в базе сайта в настоящее время начинается c 1 января 2011 г. Нет смысла пытаться выбрать более раннюю дату.

Внимание! Время в таблицах - всемирное. Для получения местного времени необходимо прибавить поправку, которая в Хоутон Лейк равна -5 ч.

Ветер - указаны скорость ветра в м/с и направление, откуда дует ветер: С - северный, СВ - северо-восточный, В - восточный, ЮВ - юго-восточный, Ю - южный, ЮЗ - юго-западный, З - западный, СЗ - северо-западный.
Видимость - горизонтальная дальность видимости в метрах или километрах. При видимости от 1 до 10 км при отсутствии осадков обычно наблюдается дымка, при ухудшении видимости до 1 км и менее - туман. В сухую погоду видимость может ухудшаться дымом, пылью или мглою.
Атмосферные явления - указаны явления, наблюдавшиеся в указанный момент времени.
Облачность - указаны через наклонную черту верхняя и нижняя облачность в баллах и высота нижней границы облаков в метрах. Внимание: облачность, как и прочие метеорологические величины в США измеряются автоматическими метеостанциями. Указанные значения в баллах носят условный характер и показывают процент времени, в течение которого, в среднем, лазерный луч высотомера отражался от облаков обратно.
T - Температура воздуха - температура, измеренная на высоте 2 м над землей.
Td - Температура точки росы - температура, при понижении до которой содержащийся в воздухе водяной пар достигнет насыщения.
f - Относительная влажность воздуха - влажноcть воздуха, измеренная на высоте 2 м над землей.
Te - Эффективная температура - температура, которую ощущает одетый по сезону человек в тени. Характеристика душности погоды. При расчете учитывается влияние влажности воздуха и скорости ветра на теплоощущения человека.
Tes - Эффективная температура на солнце - температура, которую ощущает человек, с поправкой на солнечный нагрев. Характеристика знойности погоды. Зависит от высоты солнца над горизонтом, облачности и скорости ветра. Ночью, в пасмурную погоду, а также при ветре 12 м/с и более поправка равна нулю.
P - Атмосферное давление - приведенное к уровню моря атмосферное давление.
Po - Атмосферное давление - измеренное на уровне метеостанции атмосферное давление.
Tmin - Минимальная температура - минимум температуры воздуха на высоте 2 м над землей.
Tmax - Максимальная температура - максимум температуры воздуха на высоте 2 м над землей.
R - Количество осадков - Количество выпавших осадков за 3 или 6 часов, мм.
SD - Снежный покров - Высота снежного покрова, см.